Stations météo

réclame
Mon MeteoGroup
Hoorn-A, Pays-Bas (6212): Température de l'air & dewpoint: 06.12.2019 16:00:00 - 12.12.2019 16:00:00 (CET)Hoorn-A, Pays-Bas (6212): Vitesse du vent & gusts: 06.12.2019 16:00:00 - 12.12.2019 16:00:00 (CET)Hoorn-A, Pays-Bas (6212): Direction du vent: 06.12.2019 16:00:00 - 12.12.2019 16:00:00 (CET)Hoorn-A, Pays-Bas (6212): reduced air pressure: 06.12.2019 16:00:00 - 12.12.2019 16:00:00 (CET)Hoorn-A, Pays-Bas (6212): visibility: 06.12.2019 16:00:00 - 12.12.2019 16:00:00 (CET)
Date & Time tt [°C] td [°C] ff [km/h] ff [knt] fx [km/h] fx [knt] dd ppp [hPa] vv [km]
12.12.2019 16:00:00 7,0 3,0 59 32 - - SSE 990,1 10
12.12.2019 15:00:00 6,9 3,4 55 30 54 29 SSE 991,7 10
12.12.2019 14:00:00 7,3 3,1 52 28 54 29 SSE 993,2 10
12.12.2019 13:00:00 6,9 2,3 54 29 54 29 SSE 994,8 10
12.12.2019 12:00:00 7,5 1,1 42 23 50 27 S 995,9 10
12.12.2019 11:00:00 7,3 0,5 39 21 43 23 S 997,2 10
12.12.2019 10:00:00 7,0 0,5 35 19 36 19 S 998,0 10
12.12.2019 09:00:00 7,1 1,9 35 19 36 19 SSW 998,4 10
12.12.2019 08:00:00 6,9 1,0 28 15 32 18 SSW 998,8 10
12.12.2019 07:00:00 6,9 1,7 29 16 32 18 SSW 999,0 10
12.12.2019 06:00:00 6,7 1,6 31 17 36 19 SSW 999,1 10
12.12.2019 05:00:00 7,0 1,5 37 20 36 19 SW 999,1 10
12.12.2019 04:00:00 7,5 2,1 39 21 40 21 WSW 999,1 10
12.12.2019 03:00:00 7,6 3,7 31 17 47 25 WSW 999,1 10
12.12.2019 02:00:00 7,8 3,0 35 19 36 19 SW 998,8 10
12.12.2019 01:00:00 8,2 4,2 24 13 43 23 S 999,1 10
12.12.2019 00:00:00 7,1 3,3 44 24 50 27 SSW 999,6 3,2
11.12.2019 23:00:00 7,4 4,2 42 23 50 27 SSE 999,9 2,7
11.12.2019 22:00:00 8,6 3,1 44 24 43 23 S 1000,2 10
11.12.2019 21:00:00 8,6 4,8 41 22 43 23 SSE 1000,6 10
11.12.2019 20:00:00 8,7 5,0 42 23 40 21 S 1001,0 10
11.12.2019 19:00:00 9,0 3,1 39 21 40 21 S 1001,5 10
11.12.2019 18:00:00 8,8 3,1 35 19 40 21 S 1001,8 10
11.12.2019 17:00:00 8,6 2,8 34 18 32 18 S 1002,1 10
11.12.2019 16:00:00 8,6 2,1 31 17 32 18 S 1002,6 10
11.12.2019 15:00:00 8,4 2,0 34 18 32 18 S 1003,0 10
11.12.2019 14:00:00 8,4 2,8 34 18 32 18 S 1003,4 10
11.12.2019 13:00:00 8,4 2,4 29 16 29 16 S 1004,4 10
11.12.2019 12:00:00 8,4 2,8 29 16 29 16 S 1005,1 10
11.12.2019 11:00:00 8,4 2,7 28 15 29 16 SSW 1005,9 10
11.12.2019 10:00:00 8,4 2,3 24 13 25 14 SSW 1006,0 10
11.12.2019 09:00:00 8,3 3,0 26 14 25 14 SSW 1005,9 10
11.12.2019 08:00:00 8,3 3,2 26 14 29 16 SW 1006,2 10
11.12.2019 07:00:00 8,7 3,2 34 18 40 21 SW 1006,3 10
11.12.2019 06:00:00 8,9 3,3 39 21 40 21 WSW 1006,0 10
11.12.2019 05:00:00 9,4 2,3 39 21 43 23 WSW 1006,1 10
11.12.2019 04:00:00 9,6 3,2 48 26 50 27 WSW 1005,7 10
11.12.2019 03:00:00 9,8 3,6 44 24 47 25 SW 1005,4 10
11.12.2019 02:00:00 9,4 7,7 31 17 86 47 SW 1005,0 5
11.12.2019 01:00:00 9,1 7,9 80 43 83 45 S 1003,7 5
11.12.2019 00:00:00 9,4 6,8 83 45 94 51 S 1003,5 9
10.12.2019 23:00:00 9,5 6,4 83 45 90 49 SSE 1003,5 9
10.12.2019 22:00:00 9,3 6,1 80 43 94 51 S 1004,4 11
10.12.2019 21:00:00 8,6 5,3 85 46 90 49 SSE 1005,1 10
10.12.2019 20:00:00 8,6 5,1 89 48 94 51 S 1006,2 10
10.12.2019 19:00:00 8,2 4,4 85 46 90 49 S 1007,5 10
10.12.2019 18:00:00 8,0 4,8 91 49 90 49 SSE 1008,4 10
10.12.2019 17:00:00 8,1 5,4 83 45 83 45 SSE 1009,9 4,1
10.12.2019 16:00:00 7,9 4,4 83 45 83 45 S 1011,6 9
10.12.2019 15:00:00 8,0 4,0 76 41 76 41 SSE 1013,0 10
10.12.2019 14:00:00 7,8 4,3 74 40 72 39 S 1014,9 10
10.12.2019 13:00:00 7,9 4,3 65 35 65 35 SSE 1016,5 10
10.12.2019 12:00:00 8,1 3,9 59 32 61 33 S 1017,9 10
10.12.2019 11:00:00 8,3 3,1 54 29 54 29 SSE 1019,4 10
10.12.2019 10:00:00 8,3 1,7 50 27 54 29 S 1020,4 10
10.12.2019 09:00:00 8,0 1,3 44 24 47 25 S 1020,9 -
10.12.2019 08:00:00 7,8 0,5 37 20 40 21 S 1021,3 10
10.12.2019 07:00:00 7,9 0,9 31 17 32 18 SSW 1022,0 10
10.12.2019 06:00:00 7,9 1,3 26 14 29 16 SW 1022,1 10
10.12.2019 05:00:00 7,9 -0,7 22 12 29 16 WSW 1022,1 10
10.12.2019 04:00:00 8,0 0,0 24 13 40 21 W 1022,3 10
10.12.2019 03:00:00 8,0 1,1 26 14 40 21 W 1021,9 10
10.12.2019 02:00:00 7,9 -0,8 39 21 47 25 W 1021,4 10
10.12.2019 01:00:00 7,0 0,2 37 20 47 25 WNW 1021,2 10
10.12.2019 00:00:00 8,0 0,0 42 23 50 27 WNW 1020,3 10
09.12.2019 23:00:00 7,4 2,3 61 33 61 33 WNW 1019,3 10
09.12.2019 22:00:00 8,3 -1,0 59 32 79 43 WNW 1018,1 10
09.12.2019 21:00:00 8,4 -0,2 63 34 65 35 WNW 1017,1 10
09.12.2019 20:00:00 8,5 -0,4 67 36 68 37 NW 1015,4 10
09.12.2019 19:00:00 7,8 1,9 61 33 76 41 WNW 1014,1 10
09.12.2019 18:00:00 8,6 0,3 65 35 72 39 NW 1011,9 10
09.12.2019 17:00:00 8,5 2,7 68 37 76 41 WNW 1009,8 -
09.12.2019 16:00:00 9,0 1,8 78 42 79 43 NW 1007,2 10
09.12.2019 15:00:00 9,0 2,3 78 42 94 51 NW 1004,6 10
09.12.2019 14:00:00 8,8 4,4 72 39 79 43 NNW 1002,0 9
09.12.2019 13:00:00 8,5 4,3 67 36 65 35 NW 999,3 10
09.12.2019 12:00:00 9,1 5,1 34 18 36 19 WNW 996,7 10
09.12.2019 11:00:00 9,0 4,8 39 21 47 25 W 994,8 10
09.12.2019 10:00:00 9,1 4,6 50 27 54 29 W 993,5 10
09.12.2019 09:00:00 8,9 5,0 42 23 50 27 W 992,2 9
09.12.2019 08:00:00 8,2 4,8 37 20 40 21 W 991,5 10
09.12.2019 07:00:00 8,5 4,5 42 23 43 23 WSW 990,6 10
09.12.2019 06:00:00 8,8 4,3 31 17 40 21 SSW 990,0 10
09.12.2019 05:00:00 9,0 3,8 42 23 47 25 SSW 989,9 10
09.12.2019 04:00:00 9,2 3,8 52 28 58 31 SSW 990,0 10
09.12.2019 03:00:00 9,2 4,3 61 33 61 33 S 990,6 10
09.12.2019 02:00:00 9,0 3,8 61 33 65 35 SSW 990,7 10
09.12.2019 01:00:00 9,0 3,5 65 35 68 37 SSW 991,2 10
09.12.2019 00:00:00 9,0 3,6 63 34 65 35 SSW 991,6 10
08.12.2019 23:00:00 8,9 3,2 65 35 65 35 SSW 991,6 10
08.12.2019 22:00:00 9,3 4,0 67 36 65 35 SSW 992,2 10
08.12.2019 21:00:00 9,5 3,7 67 36 65 35 SSW 992,4 10
08.12.2019 20:00:00 10,1 3,8 65 35 68 37 SSW 992,7 10
08.12.2019 19:00:00 10,4 3,0 70 38 72 39 SSW 993,1 10
08.12.2019 18:00:00 10,5 3,1 74 40 72 39 SSW 993,2 10
08.12.2019 17:00:00 10,7 3,2 63 34 72 39 SSW 993,8 10
08.12.2019 16:00:00 10,6 4,9 65 35 68 37 SSW 994,4 10
08.12.2019 15:00:00 10,6 4,6 67 36 72 39 SSW 995,0 10
08.12.2019 14:00:00 10,5 5,0 61 33 68 37 SSW 995,0 10
08.12.2019 13:00:00 10,8 4,6 61 33 65 35 SW 995,3 10
08.12.2019 12:00:00 10,9 4,6 68 37 68 37 SW 995,1 10
08.12.2019 11:00:00 11,3 6,0 59 32 76 41 SW 995,0 10
08.12.2019 10:00:00 11,9 8,5 70 38 76 41 SSW 994,0 9
08.12.2019 09:00:00 11,2 10,0 67 36 76 41 SSW 994,7 7
08.12.2019 08:00:00 10,2 9,8 76 41 83 45 S 994,5 2,7
08.12.2019 07:00:00 10,6 9,2 80 43 86 47 S 995,0 6
08.12.2019 06:00:00 10,1 9,0 81 44 86 47 S 995,7 5
08.12.2019 05:00:00 10,2 8,8 78 42 83 45 S 997,0 3,4
08.12.2019 04:00:00 11,0 8,4 80 43 83 45 S 998,7 10
08.12.2019 03:00:00 11,0 8,7 78 42 83 45 S 1000,4 10
08.12.2019 02:00:00 11,2 8,1 76 41 79 43 S 1002,2 10
08.12.2019 01:00:00 10,8 7,0 72 39 79 43 S 1003,6 10
08.12.2019 00:00:00 10,4 7,3 63 34 65 35 S 1005,2 10
07.12.2019 23:00:00 10,5 6,4 57 31 61 33 S 1006,3 10
07.12.2019 22:00:00 10,5 6,4 55 30 58 31 S 1007,8 10
07.12.2019 21:00:00 10,6 6,0 52 28 54 29 SSW 1009,0 10
07.12.2019 20:00:00 10,5 4,5 48 26 50 27 SSW 1009,7 10
07.12.2019 19:00:00 10,5 5,4 42 23 47 25 SSW 1010,4 10
07.12.2019 18:00:00 10,4 6,5 42 23 43 23 SSW 1010,8 10
07.12.2019 17:00:00 10,2 6,6 41 22 43 23 SW 1011,0 10
07.12.2019 16:00:00 10,1 6,9 41 22 40 21 SW 1010,3 10
07.12.2019 15:00:00 10,2 7,0 41 22 40 21 SW 1010,5 10
07.12.2019 14:00:00 10,0 6,9 42 23 47 25 SW 1010,2 10
07.12.2019 13:00:00 10,1 7,1 46 25 47 25 WSW 1010,4 10
07.12.2019 12:00:00 10,0 6,7 44 24 43 23 WSW 1010,4 10
07.12.2019 11:00:00 10,0 6,8 42 23 47 25 WSW 1010,0 10
07.12.2019 10:00:00 10,0 6,7 44 24 47 25 WSW 1010,0 10
07.12.2019 09:00:00 10,0 6,7 54 29 54 29 WSW 1009,0 10
07.12.2019 08:00:00 10,1 6,9 54 29 54 29 WSW 1008,3 10
07.12.2019 07:00:00 10,0 6,9 55 30 54 29 WSW 1007,3 10
07.12.2019 06:00:00 10,0 7,3 54 29 58 31 WSW 1006,6 10
07.12.2019 05:00:00 10,2 7,2 59 32 58 31 WSW 1006,0 10
07.12.2019 04:00:00 10,2 7,0 59 32 58 31 WSW 1005,2 10
07.12.2019 03:00:00 10,3 7,3 57 31 58 31 WSW 1004,3 10
07.12.2019 02:00:00 10,4 7,1 57 31 58 31 WSW 1003,3 10
07.12.2019 01:00:00 10,5 7,0 59 32 61 33 W 1002,0 10
07.12.2019 00:00:00 10,5 7,4 61 33 65 35 W 1000,8 10
06.12.2019 23:00:00 10,5 7,5 67 36 68 37 WSW 999,5 10
06.12.2019 22:00:00 10,2 8,5 52 28 50 27 W 999,1 7
06.12.2019 21:00:00 10,6 8,3 37 20 54 29 WSW 998,3 10
06.12.2019 20:00:00 11,5 8,8 48 26 58 31 SSW 997,9 10
06.12.2019 19:00:00 11,2 9,7 59 32 61 33 SSW 998,0 10
06.12.2019 18:00:00 11,5 10,3 55 30 61 33 S 997,9 10
06.12.2019 17:00:00 11,4 10,3 61 33 65 35 S 998,2 7
06.12.2019 16:00:00 11,2 10,4 61 33 65 35 S 998,7 7

tt = Température de l'air
td = dewpoint
ff = Vitesse du vent
fx = gusts
dd = Direction du vent
ppp = reduced air pressure
vv = visibility

stations d'obs. à proximité